Weather History for Ionia, MI

Change the Weather History Date:

Friday, December 14, 2012

  Actual Average (KGRR) Record (KGRR)
Temperature  
Mean Temperature 36 °F 29 °F  
Max Temperature 45 °F 35 °F 59 °F (1975)
Min Temperature 28 °F 24 °F -1 °F (1943)
Degree Days  
Heating Degree Days 28 36  
Month to date heating degree days 468  
Since 1 July heating degree days 1806  
Cooling Degree Days 0 0  
Month to date cooling degree days 0  
Year to date cooling degree days 699  
Moisture  
Dew Point 30 °F    
Average Humidity 79    
Maximum Humidity 93    
Minimum Humidity 61    
Precipitation  
Precipitation 0.00 in 0.07 in 1.32 in (1975)
Month to date precipitation 1.21  
Year to date precipitation 36.98  
Snow  
Snow 0.00 in 0.80 in 4.60 in (1951)
Month to date snowfall 8.7  
Since 1 July snowfall 16.0  
Snow Depth -    
Sea Level Pressure  
Sea Level Pressure 30.16 in    
Wind  
Wind Speed 5 mph (SSE)    
Max Wind Speed 8 mph    
Max Gust Speed -    
Visibility 9 miles    
Events      
T = Trace of Precipitation, MM = Missing Value Source: NWS Daily Summary

Daily Weather History Graph

Daily Weather History Graph

Search for Another Location

Airport:

Trip Planner

Search our weather history database for the weather conditions in past years. The results will help you decide how hot, cold, wet, or windy it might be!

Date:

Astronomy

Dec. 14, 2012 Rise Set
Actual Time 8:04 AM EST 5:06 PM EST
Civil Twilight 7:31 AM EST 5:38 PM EST
Nautical Twilight 6:55 AM EST 6:14 PM EST
Astronomical Twilight 6:21 AM EST 6:48 PM EST
Moon 9:06 AM EST (12/14) 6:59 PM EST (12/14)
Length of Visible Light 10h 06m
Length of Day
9h 02m
Waxing Crescent, 3% of the Moon is Illuminated
Dec 14
Waxing Crescent
Dec 20
First Quarter
Dec 28
Full
Jan 4
Last Quarter
Jan 11
New

Hourly Weather History & Observations

Time (EST) Temp. Windchill Dew Point Humidity Pressure Visibility Wind Dir Wind Speed Gust Speed Precip Events Conditions
12:14 AM 34.0 °F 28.0 °F 26.6 °F 74% 30.12 in 10.0 mi SW 6.9 mph - N/A   Clear
12:34 AM 33.6 °F 28.4 °F 26.2 °F 74% 30.12 in 10.0 mi SW 5.8 mph - N/A   Clear
12:54 AM 34.0 °F 28.0 °F 26.6 °F 74% 30.12 in 10.0 mi SW 6.9 mph - N/A   Clear
1:14 AM 34.7 °F 28.1 °F 27.1 °F 74% 30.12 in 10.0 mi SW 8.1 mph - N/A   Clear
1:34 AM 34.7 °F 28.1 °F 27.3 °F 74% 30.12 in 10.0 mi SW 8.1 mph - N/A   Clear
1:54 AM 34.7 °F 28.8 °F 27.3 °F 74% 30.12 in 10.0 mi SW 6.9 mph - N/A   Clear
2:14 AM 34.0 °F 28.8 °F 27.3 °F 77% 30.13 in 10.0 mi SW 5.8 mph - N/A   Clear
2:34 AM 33.1 °F 28.7 °F 27.3 °F 79% 30.13 in 10.0 mi SW 4.6 mph - N/A   Clear
2:54 AM 32.5 °F 27.1 °F 27.3 °F 81% 30.14 in 10.0 mi SW 5.8 mph - N/A   Clear
3:14 AM 33.1 °F 27.7 °F 27.7 °F 81% 30.15 in 10.0 mi SW 5.8 mph - N/A   Clear
3:34 AM 32.9 °F 27.5 °F 27.7 °F 81% 30.15 in 10.0 mi SSW 5.8 mph - N/A   Clear
3:54 AM 32.2 °F 26.7 °F 27.5 °F 83% 30.15 in 10.0 mi SW 5.8 mph - N/A   Clear
4:14 AM 32.0 °F 27.5 °F 27.0 °F 82% 30.15 in 10.0 mi SW 4.6 mph - N/A   Clear
4:34 AM 32.4 °F 26.0 °F 27.5 °F 82% 30.15 in 10.0 mi SW 6.9 mph - N/A   Clear
4:54 AM 32.4 °F 27.9 °F 27.1 °F 81% 30.15 in 10.0 mi SW 4.6 mph - N/A   Clear
5:14 AM 32.4 °F 27.9 °F 27.3 °F 82% 30.15 in 10.0 mi SW 4.6 mph - N/A   Clear
5:34 AM 30.9 °F 24.3 °F 26.2 °F 83% 30.16 in 10.0 mi SW 6.9 mph - N/A   Clear
5:54 AM 31.5 °F 24.9 °F 26.6 °F 82% 30.16 in 10.0 mi SW 6.9 mph - N/A   Clear
6:14 AM 32.0 °F 27.5 °F 27.3 °F 83% 30.16 in 10.0 mi SW 4.6 mph - N/A   Clear
6:34 AM 32.0 °F 27.5 °F 27.3 °F 83% 30.17 in 10.0 mi SW 4.6 mph - N/A   Clear
6:54 AM 32.0 °F 28.7 °F 27.3 °F 83% 30.17 in 10.0 mi SW 3.5 mph - N/A   Clear
7:14 AM 31.5 °F - 27.0 °F 83% 30.17 in 10.0 mi Calm Calm - N/A   Clear
7:34 AM 31.1 °F 27.7 °F 27.3 °F 86% 30.17 in 10.0 mi SSW 3.5 mph - N/A   Clear
7:54 AM 29.5 °F 25.9 °F 26.8 °F 90% 30.17 in 10.0 mi South 3.5 mph - N/A   Clear
8:14 AM 28.4 °F - 26.6 °F 93% 30.17 in 7.0 mi Calm Calm - N/A   Clear
8:34 AM 28.6 °F 23.5 °F 26.6 °F 92% 30.17 in 7.0 mi South 4.6 mph - N/A   Clear
8:54 AM 30.7 °F 26.0 °F 27.5 °F 88% 30.18 in 7.0 mi SSW 4.6 mph - N/A   Clear
9:14 AM 30.7 °F - 27.7 °F 88% 30.18 in 7.0 mi Calm Calm - N/A   Clear
9:34 AM 32.2 °F - 28.8 °F 87% 30.20 in 10.0 mi Calm Calm - N/A   Clear
9:54 AM 34.9 °F - 29.1 °F 79% 30.20 in 10.0 mi Calm Calm - N/A   Clear
10:14 AM 36.3 °F 33.7 °F 30.0 °F 78% 30.21 in 10.0 mi SW 3.5 mph - N/A   Clear
10:34 AM 37.6 °F 35.1 °F 30.7 °F 76% 30.21 in 7.0 mi West 3.5 mph - N/A   Clear
10:54 AM 38.8 °F - 31.5 °F 75% 30.21 in 10.0 mi Calm Calm - N/A   Clear
11:14 AM 39.9 °F - 31.8 °F 73% 30.22 in 10.0 mi Calm Calm - N/A   Clear
11:34 AM 41.5 °F - 32.2 °F 69% 30.22 in 10.0 mi Calm Calm - N/A   Clear
11:54 AM 41.5 °F - 32.2 °F 69% 30.22 in 10.0 mi Calm Calm - N/A   Clear
12:14 PM 42.1 °F - 32.9 °F 70% 30.21 in 10.0 mi Calm Calm - N/A   Clear
12:34 PM 42.6 °F - 33.6 °F 70% 30.20 in 10.0 mi Calm Calm - N/A   Clear
12:54 PM 43.0 °F - 33.4 °F 69% 30.19 in 10.0 mi Calm Calm - N/A   Clear
1:14 PM 43.3 °F 41.7 °F 34.0 °F 70% 30.19 in 7.0 mi SE 3.5 mph - N/A   Clear
1:34 PM 44.6 °F - 34.3 °F 67% 30.18 in 10.0 mi Calm Calm - N/A   Clear
1:54 PM 44.8 °F - 33.8 °F 65% 30.17 in 10.0 mi Calm Calm - N/A   Clear
2:14 PM 45.1 °F - 33.3 °F 63% 30.16 in 10.0 mi Calm Calm - N/A   Clear
2:34 PM 45.3 °F - 33.8 °F 64% 30.16 in 10.0 mi Calm Calm - N/A   Clear
2:54 PM 45.5 °F 44.2 °F 33.4 °F 63% 30.15 in 10.0 mi East 3.5 mph - N/A   Clear
3:14 PM 45.9 °F 44.6 °F 33.1 °F 61% 30.15 in 10.0 mi SE 3.5 mph - N/A   Clear
3:34 PM 45.9 °F 43.6 °F 33.3 °F 61% 30.15 in 10.0 mi East 4.6 mph - N/A   Clear
3:54 PM 45.5 °F 43.2 °F 33.6 °F 63% 30.15 in 10.0 mi East 4.6 mph - N/A   Clear
4:14 PM 44.6 °F 42.2 °F 33.3 °F 64% 30.14 in 10.0 mi East 4.6 mph - N/A   Clear
4:34 PM 43.7 °F 40.3 °F 33.3 °F 67% 30.15 in 10.0 mi East 5.8 mph - N/A   Clear
5:14 PM 40.1 °F 35.3 °F 32.2 °F 73% 30.15 in 10.0 mi ENE 6.9 mph - N/A   Clear
5:34 PM 40.6 °F 37.5 °F 32.2 °F 72% 30.15 in 10.0 mi East 4.6 mph - N/A   Clear
5:54 PM 36.5 °F 33.9 °F 31.5 °F 82% 30.17 in 10.0 mi ENE 3.5 mph - N/A   Clear
6:14 PM 37.4 °F 34.9 °F 32.0 °F 81% 30.16 in 10.0 mi ENE 3.5 mph - N/A   Clear
6:34 PM 34.3 °F 30.2 °F 30.2 °F 85% 30.16 in 10.0 mi ENE 4.6 mph - N/A   Clear
6:54 PM 34.0 °F 28.8 °F 30.7 °F 88% 30.17 in 10.0 mi ENE 5.8 mph - N/A   Clear
7:14 PM 34.2 °F 28.2 °F 31.1 °F 89% 30.17 in 7.0 mi ENE 6.9 mph - N/A   Clear
7:34 PM 34.9 °F 28.3 °F 31.1 °F 86% 30.16 in 7.0 mi ENE 8.1 mph - N/A   Clear
7:54 PM 35.2 °F 28.8 °F 31.5 °F 86% 30.16 in 7.0 mi ENE 8.1 mph - N/A   Clear
8:14 PM 35.2 °F 28.8 °F 31.3 °F 85% 30.17 in 7.0 mi ENE 8.1 mph - N/A   Clear
8:34 PM 35.1 °F 28.6 °F 31.1 °F 85% 30.17 in 7.0 mi ENE 8.1 mph - N/A   Clear
8:54 PM 34.9 °F 29.0 °F 30.9 °F 85% 30.17 in 10.0 mi East 6.9 mph - N/A   Clear
9:14 PM 34.5 °F 28.6 °F 30.6 °F 85% 30.17 in 7.0 mi East 6.9 mph - N/A   Clear
9:34 PM 32.9 °F 27.5 °F 30.0 °F 89% 30.17 in 7.0 mi East 5.8 mph - N/A   Clear
9:54 PM 32.0 °F 26.4 °F 29.3 °F 90% 30.16 in 7.0 mi East 5.8 mph - N/A   Clear
10:14 PM 32.4 °F 26.0 °F 30.2 °F 92% 30.15 in 7.0 mi East 6.9 mph - N/A   Clear
10:34 PM 32.0 °F 27.5 °F 29.8 °F 92% 30.14 in 7.0 mi East 4.6 mph - N/A   Clear
10:54 PM 32.0 °F 27.5 °F 29.8 °F 92% 30.13 in 7.0 mi East 4.6 mph - N/A   Clear
11:14 PM 32.0 °F 27.5 °F 30.2 °F 93% 30.13 in 7.0 mi East 4.6 mph - N/A   Clear
11:34 PM 32.0 °F 26.4 °F 30.2 °F 93% 30.12 in 7.0 mi East 5.8 mph - N/A   Clear
11:54 PM 32.0 °F 26.4 °F 30.0 °F 92% 30.12 in 7.0 mi East 5.8 mph - N/A   Clear